Location: Allen Fire Department Station 4
(33.1073°N, 96.6988°W)
Time: 11:35:34
(UTC+00:00)

BREEZE-M DEB (TANK) - Pass Details

Date: 03 December 2021
Orbit: 358 x 14876 km, 49.5° (Epoch: 23 January)

Event Time Altitude Azimuth Distance (km) Brightness Sun altitude
Rises 23:24:11 0° 307° (NW) 7,213 9.4 -1.7°
Reaches altitude 10° 23:31:03 10° 312° (NW) 4,393 8.2 -3.0°
Maximum altitude 23:39:25 46° 25° (NNE) 1,004 4.4 -4.6°
Drops below altitude 10° 23:42:32 10° 101° (E) 1,656 5.3 -5.2°
Enters shadow 23:44:00 - 109° (ESE) 2,318 6.1 -5.5°
